{"data":{"norad_id":51127,"intl_designator":"2022-005Z","name":"STARLINK-3370","alt_names":[],"object_type":"PAYLOAD","status":"ACTIVE","operator":null,"country":"US","launch_date":"2022-01-19","launch_site_code":"AFETR","launch_vehicle":null,"mission":null,"orbit_class":"UNKNOWN","rcs_meters":null,"size_class":null,"mass_kg":null,"dimensions":null,"purposes":["comms"],"wikipedia_slug":null,"has_3d_model":false,"image_url":null,"decayed_at":null,"tle_current":{"epoch":"2026-05-25T04:41:16.138752Z","epoch_age_seconds":58962,"freshness":"FRESH","line1":"1 51127U 22005Z   26145.19532568  .00000295  00000+0  36601-4 0  9997","line2":"2 51127  53.2136 315.6832 0001274  87.0630 273.0508 15.08840926240288","mean_motion":15.08840926,"eccentricity":0.0001274,"inclination_deg":53.2136,"raan_deg":315.6832,"arg_perigee_deg":87.063,"mean_anomaly_deg":273.0508,"bstar":3.6601e-5,"rev_number":24028,"period_min":95.4374961062,"perigee_km":538.85922095304,"apogee_km":540.62189615496,"semimajor_km":6917.877558554,"source":"CELESTRAK","updated_at":"2026-05-25T13:38:16.911118Z"}}}